Regional Weather Roundup
Issued by NWS

Home | Current Version | Previous Version | Text Only | Print | Product List | Glossary On
Versions: 1 2 3 4 5 6 7 8 9 10 11 12 13 14 15 16 17 18 19 20 21 22 23 24 25 26 27 28 29 30 31 32 33 34 35 36 37 38 39 40 41 42 43 44 45 46 47 48 49 50
141
ASUS43 KDMX 241408
RWRIA

WEATHER ROUNDUP FOR IOWA
NATIONAL WEATHER SERVICE DES MOINES IA
900 AM CDT SAT SEP 24 2016

NOTE: "FAIR" INDICATES FEW OR NO CLOUDS BELOW 12,000 FEET WITH NO
SIGNIFICANT WEATHER AND/OR OBSTRUCTIONS TO VISIBILITY.

* - THESE STATIONS ARE NOT NWS STATIONS...THUS NOT UNDER NWS
QUALITY CONTROL.  THEY ALSO DO NOT REPORT WEATHER SUCH
AS PRECIPITATION OR FOG.

IAZ001>003-012>014-020>022-031>034-043>046-241500-
   NORTHWEST IOWA

CITY           SKY/WX    TMP DP  RH WIND       PRES   REMARKS
CARROLL *      MOSUNNY   70  68  94 SE9G15    30.02S
CHEROKEE *     MOSUNNY   71  67  89 SE13G18   29.99S
DENISON *      MOSUNNY   73  64  73 SE13      29.97S
LE MARS *      SUNNY     72  64  78 SE13G18   29.95F
ORANGE CITY *  SUNNY     72  66  83 SE7       29.96F
SHELDON *      CLOUDY    70  68  94 SE10G17   29.96F
SIOUX CITY     SUNNY     73  66  78 SE13      29.93S
SPENCER        PTSUNNY   69  66  90 SE14G21   30.01F FOG
STORM LAKE *   CLOUDY    68  66  94 SE12      30.02R FOG
$$

IAZ055>058-069>071-079>083-090>094-241500-
   SOUTHWEST IOWA

CITY           SKY/WX    TMP DP  RH WIND       PRES   REMARKS
ATLANTIC *     PTSUNNY   75  66  73 S10       30.01R
AUDUBON *      SUNNY     72  66  83 SE7       30.03S
CLARINDA *       N/A     75  68  78 MISG      30.02S
COUNCIL BLFS * PTSUNNY   73  66  78 S8        29.98S
CRESTON *      MOSUNNY   72  66  83 SE9       30.06R
HARLAN  *      PTSUNNY   73  66  78 SE9       30.03S
LAMONI         MOSUNNY   71  66  84 SE8       30.06R
RED OAK *      CLOUDY    75  68  78 S9        30.00S HAZE
SHENANDOAH *   CLOUDY    73  68  83 SE9       30.00S
$$

IAZ047>049-059>061-072>074-084-241500-
   CENTRAL IOWA

CITY           SKY/WX    TMP DP  RH WIND       PRES   REMARKS
AMES           CLOUDY    68  68 100 SE10      30.07S FOG
ANKENY *         N/A    N/A N/A N/A MISG        N/A
BOONE *        CLOUDY    68  68 100 SE13      30.06S FOG
CHARITON *       N/A     72  66  83 SE8       30.07S
DES MOINES     MOSUNNY   71  67  87 SE8       30.05S FOG
GRINNELL*      FOG       67  65  96 E12       30.10S VSB 3/4
KNOXVILLE *    SUNNY     70  66  88 SE7       30.07R FOG
MARSHALLTOWN   CLOUDY    67  67 100 SE14      30.09S FOG
NEWTON *       CLOUDY    68  66  94 SE9       30.08S FOG
PELLA *        CLOUDY    68  67  96 SE12      30.10R FOG
PERRY *        PTSUNNY   70  70  99 E10       30.04S FOG
$$

IAZ004>006-015-016-023>025-035-036-241500-
   NORTH CENTRAL IOWA

CITY           SKY/WX    TMP DP  RH WIND       PRES   REMARKS
ALGONA *       PTSUNNY   68  66  94 SE15G21   30.06S FOG
CLARION *      CLOUDY    68  68 100 SE14G21   30.07S FOG
ESTHERVILLE    CLOUDY    67  66  97 SE18      30.03S FOG
FORT DODGE *   CLOUDY    68  64  88 E13       30.06S
FOREST CITY *  FOG       64  64 100 SE13      30.09S VSB 1
WEBSTER CITY * CLOUDY    68  68 100 SE12G17   30.05R FOG
IOWA FALLS *   CLOUDY    67  66  94 SE10      30.10S FOG
$$

IAZ007>011-017>019-026>030-037>042-050>054-066-241500-
   NORTHEAST IOWA

CITY           SKY/WX    TMP DP  RH WIND       PRES   REMARKS
CEDAR RAPIDS   CLOUDY    67  67 100 SE9       30.12S FOG
CHARLES CITY * FOG       64  64 100 SE9G16    30.13S VSB 1/2
CLINTON *      CLOUDY    67  65  93 E9        30.16S FOG
DECORAH *      FOG       64  64 100 SE7       30.15S VSB 1/2
DUBUQUE        CLOUDY    65  63  93 E8        30.17S
MONTICELLO *   CLOUDY    66  64  94 SE8       30.14S FOG
OELWEIN *      FOG       64  64 100 SE9G17    30.14S VSB 1/2
WATERLOO       CLOUDY    66  64  93 SE10      30.11S FOG
$$

IAZ064-065-067-068-078-241500-
   EAST CENTRAL IOWA

CITY           SKY/WX    TMP DP  RH WIND       PRES   REMARKS
DAVENPORT      CLOUDY    66  65  96 E10       30.15S FOG
IOWA CITY      CLOUDY    68  66  93 E8        30.14R FOG
MT. PLEASANT * CLOUDY    71  71 100 E7        30.13R FOG
MUSCATINE *    CLOUDY    68  66  94 E7        30.13R FOG
QUAD CITIES    CLOUDY    69  65  86 E10       30.14R FOG
$$

IAZ062-063-075>077-085>089-095>099-241500-
   SOUTHEAST IOWA

CITY           SKY/WX    TMP DP  RH WIND       PRES   REMARKS
BURLINGTON     CLOUDY    67  67 100 SE8       30.12S FOG
FAIRFIELD *    FOG       68  66  94 SE10      30.11R VSB 3/4
FORT MADISON *   N/A     68  68 100 E7        30.13R FOG
KEOKUK *       CLOUDY    70  68  94 E8        30.11R FOG
OSKALOOSA *    CLOUDY    68  67  98 E9        30.10S FOG
CENTERVILLE *    N/A     70  66  88 SE3       30.10S
OTTUMWA        CLOUDY    69  67  93 E9        30.09S FOG
WASHINGTON *     N/A    N/A N/A N/A MISG        N/A
$$

ABBREVIATIONS USED IN REMARKS
   TC - TEMPERATURES IN CELSIUS
  WCI - WIND CHILL INDEX
   HX - HEAT INDEX
  VSB - VISIBILITY
$$





USA.gov is the U.S. government's official web portal to all federal, state and local government web resources and services.